Location: Unspecified
(0.0000°N, 0.0000°E)
Time: 15:09:22
(UTC+00:00)

AO-7 - Pass Details

Date: 30 September 2021
Orbit: 1439 x 1459 km, 101.9° (Epoch: 16 October)

Event Time Altitude Azimuth Distance (km) Brightness Sun altitude
Rises 03:05:30 0° 29° (NNE) 4,520 ? -41.1°
Reaches altitude 10° 03:08:24 10° 35° (NE) 3,543 ? -40.3°
Maximum altitude 03:16:13 47° 107° (ESE) 1,838 ? -38.4°
Drops below altitude 10° 03:24:00 10° 177° (S) 3,553 ? -36.5°
Sets 03:26:55 0° 183° (S) 4,534 ? -35.7°
